Main page
METAR-TAF:

METAR-TAF

Airports :

Columbus Municipal Airport

Columbus, Nebraska, United States

latitude: 41-27N, longitude: 097-20W, elevation: 1443 ft

Current weather observation

The report was made 55 minutes ago, at 01:56 UTC
Wind 5 mph from the West
Temperature 30°F
Humidity 86%
Pressure 30.30 in. Hg
Visibility: 10 miles
Clear sky

METAR: KOLU 250156Z AUTO 28004KT 10SM CLR M01/M03 A3030 RMK AO2 SLP279 T10061028 FZRANO

Time: 20:51 (02:51 UTC)


TAF: missing

Weather observations and forecasts of more than 4000 airports (METAR and TAF reports).

The available stations are represented by yellow and red dots on the map.

Hover mouse over dot to see the name of the station.

Then click to see weather observations and forecasts.

To change the map : click on the green buttons with a black cross to zoom in, on the green button with a dash to zoom out, or on the green arrows for adjacent maps.


METAR-TAF: